This is the latest recevied weather packets stored in our database for station/object K0QED. If no packets are shown the sender has not sent any weather packets the latest 10 day(s).
| Time | Temp. | Humidity | Pressure | Rain* | Wind** | Luminosity | Snow |
|---|---|---|---|---|---|---|---|
| 1788458624 | 26.67° C | 24% | 1024.7 hPa | 0 mm | - | 617 W/m² | - |
| 1788458323 | 26.11° C | 26% | 1024.6 hPa | 0 mm | - | 644 W/m² | - |
| 1788458023 | 27.22° C | 26% | 1024.7 hPa | 0 mm | - | 655 W/m² | - |
| 1788457717 | 26.11° C | 25% | 1024.7 hPa | 0 mm | - | 645 W/m² | - |
| 1788457413 | 26.11° C | 27% | 1024.9 hPa | 0 mm | - | 667 W/m² | - |
| 1788457107 | 25.56° C | 26% | 1024.9 hPa | 0 mm | - | 665 W/m² | - |
| 1788456802 | 25.56° C | 26% | 1024.9 hPa | 0 mm | - | 668 W/m² | - |
| 1788456498 | 26.11° C | 27% | 1024.9 hPa | 0 mm | - | 686 W/m² | - |
| 1788456193 | 26.67° C | 26% | 1024.9 hPa | 0 mm | - | 680 W/m² | - |
| 1788455888 | 26.11° C | 27% | 1024.9 hPa | 0 mm | - | 668 W/m² | - |
| 1788455584 | 26.11° C | 27% | 1024.6 hPa | 0 mm | - | 707 W/m² | - |
| 1788455282 | 26.11° C | 27% | 1024.7 hPa | 0 mm | - | 733 W/m² | - |
| 1788454978 | 25.56° C | 28% | 1024.9 hPa | 0 mm | - | 726 W/m² | - |
| 1788454676 | 26.11° C | 29% | 1024.6 hPa | 0 mm | - | 717 W/m² | - |
| 1788454371 | 25.56° C | 29% | 1024.7 hPa | 0 mm | - | 753 W/m² | - |
| 1788454065 | 25.56° C | 29% | 1024.6 hPa | 0 mm | - | 780 W/m² | - |
| 1788453761 | 25.56° C | 30% | 1024.4 hPa | 0 mm | - | 773 W/m² | - |
| 1788453460 | 25° C | 30% | 1024.5 hPa | 0 mm | - | 772 W/m² | - |
| 1788453157 | 25° C | 30% | 1024.9 hPa | 0 mm | - | 728 W/m² | - |
| 1788452853 | 25° C | 30% | 1024.4 hPa | 0 mm | - | 701 W/m² | - |
| 1788452549 | 24.44° C | 31% | 1024.6 hPa | 0 mm | - | 689 W/m² | - |
| 1788452244 | 25° C | 30% | 1024.7 hPa | 0 mm | - | 648 W/m² | - |
| 1788451934 | 24.44° C | 31% | 1024.7 hPa | 0 mm | - | 614 W/m² | - |
| 1788451630 | 23.89° C | 32% | 1024.9 hPa | 0 mm | - | 582 W/m² | - |
| 1788451328 | 23.89° C | 32% | 1024.5 hPa | 0 mm | - | 403 W/m² | - |
* Rain latest hour (hover to see other rain measurements)
** Current wind speed in m/s (hover to see current wind gust speed)